Regional Weather Roundup
Issued by NWS

Home | Current Version | Previous Version | Graphics & Text | Print | Product List | Glossary On
Versions: 1 2 3 4 5 6 7 8 9 10 11 12 13 14 15 16 17 18 19 20 21 22 23 24 25 26 27 28 29 30 31 32 33 34 35 36 37 38 39 40 41 42 43 44 45 46 47 48 49 50
000
ASUS43 KBIS 081810
RWRND

NORTH DAKOTA REGIONAL WEATHER ROUNDUP
NATIONAL WEATHER SERVICE BISMARCK ND
1200 PM CST THU DEC 08 2016

NOTE: "FAIR" INDICATES FEW OR NO CLOUDS BELOW 12,000 FEET WITH NO
SIGNIFICANT WEATHER AND/OR OBSTRUCTIONS TO VISIBILITY.


NDZ001>003-009>011-017-081900-
NORTHWEST NORTH DAKOTA

CITY           SKY/WX    TMP DP  RH WIND       PRES   REMARKS
WILLISTON      MOSUNNY   -2 -10  69 NW10      30.67F WCI -19
6HR MIN TEMP:  -5; 6HR MAX TEMP:   1;

MINOT          MOSUNNY    0  -6  76 W15       30.62S HAZE    WCI -19
MINOT AFB      SUNNY     -2  -8  74 NW17      30.61F WCI -24
$$

NDZ018>021-031>035-040>046-081900-
SOUTHWEST NORTH DAKOTA

CITY           SKY/WX    TMP DP  RH WIND       PRES   REMARKS
BISMARCK       CLOUDY     4  -3  73 NW14      30.65F WCI -14
6HR MIN TEMP:   0; 6HR MAX TEMP:   4; 6HR PCP: TRACE;

DICKINSON      CLOUDY    -2  -7  79 W15       30.56F WCI -22
GARRISON         N/A      0  -7  72 NW22G28   30.61F WCI -23
6HR MIN TEMP:  -4; 6HR MAX TEMP:   1; 6HR PCP:  0.01;

HETTINGER ARPT MOSUNNY    1  -7  68 NW17      30.58F WCI -19
$$

NDZ004>008-012>016-024-026-027-054-081900-
NORTHEAST NORTH DAKOTA

CITY           SKY/WX    TMP DP  RH WIND       PRES   REMARKS
GRAND FORKS    LGT SNOW  16  11  80 NW22      30.53S WCI  -2
GRND FRKS AFB  LGT SNOW  14   8  77 N17       30.53S WCI  -3
DEVILS LAKE    CLOUDY     4  -1  80 NW17      30.56R WCI -16
$$

NDZ022-023-025-028>030-036>039-047>053-081900-
SOUTHEAST NORTH DAKOTA

CITY           SKY/WX    TMP DP  RH WIND       PRES   REMARKS
FARGO          LGT SNOW  17   9  70 NW20      30.53R WCI   1
6HR MIN TEMP:  16; 6HR MAX TEMP:  17; 6HR PCP: TRACE;

JAMESTOWN      MOSUNNY    5   0  79 NW20      30.56R WCI -15
$$




USA.gov is the U.S. government's official web portal to all federal, state and local government web resources and services.